EW2549 Weather Reports


time (UTC)temp
C
wind
direction
speed
KPH
gust
KPH
rain 1hr
cm
rain 24hr
cm
rain mn
cm
humidity
%
barometer
mb
20260507204558 17 344 0.0 0.0 0.00 0.64 0.00 33 1011.4
20260507203157 17 344 0.0 0.0 0.00 0.64 0.00 35 1011.7
20260507201556 17 345 0.0 0.0 0.00 0.64 0.00 34 1012.0
20260507200053 17 252 0.0 11.3 0.00 0.64 0.00 34 1012.2
20260507194550 17 256 3.2 19.3 0.00 1.09 0.00 32 1012.4
20260507193055 17 329 9.7 24.1 0.00 1.09 0.00 38 1012.7
20260507191547 16 258 6.4 22.5 0.00 1.09 0.00 39 1012.9
20260507190043 15 261 8.0 25.7 0.00 1.09 0.00 36 1013.2
20260507184541 15 242 0.0 19.3 0.00 1.22 0.00 37 1013.4
20260507183037 15 333 1.6 16.1 0.00 1.22 0.00 37 1013.6
20260507181537 15 236 4.8 16.1 0.00 1.22 0.00 39 1013.6
20260507180034 14 288 0.0 0.0 0.00 1.22 0.00 41 1014.0
20260507174546 13 292 0.0 0.0 0.00 1.30 0.00 42 1014.3
20260507173032 13 292 0.0 3.2 0.00 1.30 0.00 41 1014.4
20260507171541 13 249 0.0 3.2 0.00 1.30 0.00 39 1014.6
20260507170029 13 71 0.0 0.0 0.00 1.30 0.00 45 1014.9
20260507164529 13 71 0.0 3.2 0.00 1.35 0.00 43 1014.8
20260507163027 14 95 0.0 0.0 0.00 1.35 0.00 41 1015.1
20260507161525 15 82 0.0 0.0 0.00 1.35 0.00 41 1015.2
20260507160024 15 355 0.0 0.0 0.00 1.35 0.00 42 1015.5
20260507154523 16 69 0.0 0.0 0.00 1.37 0.00 39 1015.5
20260507153025 15 80 0.0 0.0 0.00 1.37 0.00 42 1015.7